Location: Casa Rossa
(45.2389°N, 12.2056°E)
Time: 04:08:04
(UTC+00:00)

ERBS - Pass Details

Date: 14 July 2020
Orbit: 408 x 426 km, 57.0° (Epoch: 11 August)

Event Time Altitude Azimuth Distance (km) Brightness Sun altitude
Exits shadow 02:47:07 - 193° (SSW) 1,740 4.9 -7.9°
Reaches altitude 10° 02:47:51 10° 187° (S) 1,469 4.6 -7.8°
Maximum altitude 02:50:38 26° 129° (SE) 856 3.9 -7.4°
Drops below altitude 10° 02:53:25 10° 71° (ENE) 1,475 6.3 -7.0°
Sets 02:55:42 0° 58° (ENE) 2,340 8.3 -6.7°
